• Join FlightAware (Why Join?)
  • Login
  • US Flag 
06:07PM EDT


 

Airport Tracker/Info


-or-


 

Live Flight TrackerFlight Track Log ✈ ASQ4345 ✈ 09-Apr-2013 ✈ KIAH - KCRP

Flight Track Log - Related Links

Times and Time Zones

All times are in EDT time to prevent confusion due to time zone crossing. See the ASQ4345 flight status page for this flight to view local times or setup timezone preferences in your user account.

Time Position Orientation Groundspeed Altitude Reporting Facility
EDT Latitude Longitude Course Direction KTS MPH feet Rate Location/Type
10:09AM 29.9661 -95.3456 127° Southeast 148 170 600  Level Houston Center
10:10AM 29.9442 -95.3119 127° Southeast 170 196 2,300 1,560 Climbing Houston Center
10:11AM 29.9300 -95.2769 115° Southeast 212 244 3,000 1,560 Climbing Houston Center
10:11AM 29.9150 -95.2481 121° Southeast 255 293 3,900 960 Climbing Houston Center
10:12AM 29.8975 -95.2058 116° Southeast 243 280 4,000 300 Climbing Houston Center
10:12AM 29.8778 -95.1633 118° Southeast 243 280 4,300 1,140 Climbing Houston Center
10:13AM 29.8656 -95.1336 115° Southeast 249 287 5,200 1,800 Climbing Houston Center
10:14AM 29.8061 -95.1236 172° South 236 272 7,300 2,160 Climbing Houston Center
10:15AM 29.7442 -95.1803 218° Southwest 246 283 9,700 1,620 Climbing Houston Center
10:16AM 29.6922 -95.2392 225° Southwest 267 307 10,700 840 Climbing Houston Center
10:17AM 29.6311 -95.3067 224° Southwest 308 354 11,500 1,020 Climbing Houston Center
10:18AM 29.5525 -95.3933 224° Southwest 329 379 12,900 1,500 Climbing Houston Center
10:19AM 29.4881 -95.4661 225° Southwest 327 376 14,600 1,500 Climbing Houston Center
10:20AM 29.4242 -95.5403 225° Southwest 328 377 16,100 1,200 Climbing Houston Center
10:21AM 29.3592 -95.6178 226° Southwest 335 386 17,100 1,020 Climbing Houston Center
10:22AM 29.2900 -95.6972 225° Southwest 351 404 18,300 1,020 Climbing Houston Center
10:23AM 29.2208 -95.7797 226° Southwest 358 412 19,300 780 Climbing Houston Center
10:24AM 29.1328 -95.8817 225° Southwest 374 430 20,000 300 Climbing Houston Center
10:25AM 29.0592 -95.9681 226° Southwest 379 436 20,000  Level Houston Center
10:26AM 28.9881 -96.0511 226° Southwest 386 444 20,000  Level Houston Center
10:27AM 28.9119 -96.1406 226° Southwest 390 449 20,000  Level Houston Center
10:28AM 28.8194 -96.2489 226° Southwest 394 453 20,000  Level Houston Center
10:29AM 28.7444 -96.3364 226° Southwest 387 445 20,000  Level Houston Center
10:30AM 28.6722 -96.4194 225° Southwest 375 432 20,000  Level Houston Center
10:31AM 28.6008 -96.5025 226° Southwest 368 423 20,000 -240 Level Houston Center
10:32AM 28.5275 -96.5864 225° Southwest 370 426 19,500 -1,320 Descending Houston Center
10:33AM 28.4558 -96.6700 226° Southwest 370 426 17,500 -2,160 Descending Houston Center
10:34AM 28.4039 -96.7300 225° Southwest 366 421 16,100 -2,040 Descending Houston Center
10:34AM 28.3722 -96.7686 227° Southwest 363 418 15,100 -1,920 Descending Houston Center
10:35AM 28.3475 -96.8094 235° Southwest 341 392 14,200 -1,860 Descending Houston Center
10:36AM 28.3250 -96.8569 242° Southwest 336 387 13,200 -2,100 Descending Houston Center
10:36AM 28.3031 -96.9017 241° Southwest 313 360 12,100 -1,980 Descending Houston Center
10:37AM 28.2842 -96.9408 241° Southwest 315 362 11,200 -1,920 Descending Houston Center
10:37AM 28.2617 -96.9836 239° Southwest 293 337 10,200 -1,500 Descending Houston Center
10:38AM 28.2458 -97.0181 242° Southwest 293 337 9,700 -1,380 Descending Houston Center
10:38AM 28.2253 -97.0531 236° Southwest 264 304 8,800 -1,680 Descending Houston Center
10:39AM 28.2106 -97.0861 243° Southwest 266 306 8,000 -1,800 Descending Houston Center
10:39AM 28.1872 -97.1272 237° Southwest 247 284 6,800 -1,740 Descending Houston Center
10:40AM 28.1781 -97.1519 247° West 254 292 6,200 -1,380 Descending Houston Center
10:40AM 28.1569 -97.1956 241° Southwest 236 272 5,400 -1,200 Descending Houston Center
10:41AM 28.1431 -97.2297 245° Southwest 242 278 5,000 -420 Descending Houston Center
10:41AM 28.1281 -97.2592 240° Southwest 232 267 5,000  Level Houston Center
10:42AM 28.1136 -97.2933 244° Southwest 235 270 5,000  Level Houston Center
10:42AM 28.0972 -97.3228 238° Southwest 227 261 5,000  Level Houston Center
10:43AM 28.0847 -97.3569 247° West 231 266 5,000  Level Houston Center
10:43AM 28.0667 -97.3911 239° Southwest 230 265 5,000  Level Houston Center
10:44AM 28.0550 -97.4214 246° West 230 265 5,000  Level Houston Center
10:44AM 28.0375 -97.4497 235° Southwest 228 262 5,000  Level Houston Center
10:45AM 28.0250 -97.4836 247° West 229 264 5,000 -420 Level Houston Center
10:45AM 28.0061 -97.5108 232° Southwest 212 244 4,600 -900 Descending Houston Center
10:46AM 27.9972 -97.5400 251° West 221 254 4,100 -1,020 Descending Houston Center
10:46AM 27.9867 -97.5633 243° Southwest 189 217 3,600 -420 Descending Houston Center
10:47AM 27.9714 -97.6050 247° West 213 245 3,700 -1,020 Climbing Houston Center
10:47AM 27.9575 -97.6075 189° South 170 196 2,600 -1,260 Descending Houston Center
10:48AM 27.9203 -97.6317 210° Southwest 158 182 2,000 -300 Descending Houston Center
10:49AM 27.8792 -97.6206 167° South 158 182 2,000 -60 Level Houston Center
10:50AM 27.8486 -97.5917 140° Southeast 130 150 1,900 -300 Descending Houston Center
10:51AM 27.8250 -97.5689 140° Southeast 119 137 1,400 -600 Descending Houston Center
10:52AM 27.8011 -97.5414 134° Southeast 121 139 700 -720 Descending Houston Center